Temp
14 13 13 14 14 14 14 13 13 13 12 12 12 11 11 11 11 11 11 11 11 11 11 11 11 11 11 12 11 11 11 11 11 11 11 11 11 11 11 11 11 11
13 13 13 13 13 14 13 13 13 13 12 12 12 11 11 11 11 11 11 11 11 11 11 11 11 11 11 12 12 12 12 12 12 12 12 12 12 12 12 12 11 11
13 13 13 13 13 13 13 13 13 13 12 12 12 11 11 11 11 11 11 11 11 11 11 11 11 11 11 11 12 12 12 12 12 12 12 12 12 12 12 12 12 12
12 13 13 13 13 13 13 13 13 13 12 12 12 12 12 11 11 11 11 11 11 11 11 11 11 11 11 11 11 11 12 12 12 12 12 12 12 12 12 12 11 11
12 12 13 13 12 13 13 12 12 13 13 12 12 12 12 12 11 11 11 11 11 11 11 11 11 11 11 11 11 11 11 11 12 12 12 12 12 12 12 11 11 11
12 12 12 12 12 13 13 12 12 13 13 12 12 12 12 12 12 11 11 11 11 11 11 11 11 11 11 11 11 11 11 11 11 11 11 11 11 11 11 11 11 11
12 12 12 12 12 12 13 12 12 12 12 12 12 12 12 12 11 11 11 11 11 11 11 11 11 11 11 11 11 11 11 11 11 11 11 11 11 11 11 11 11 11
12 12 12 12 12 12 12 12 12 12 12 12 12 12 11 11 11 11 11 11 11 11 10 10 10 10 10 10 10 10 10 10 10 11 11 10 10 10 11 11 10 10
12 12 12 12 12 11 11 11 12 12 12 12 11 11 11 11 11 11 11 11 11 10 10 10 10 10 10 10 10 10 10 10 10 10 10 10 10 10 10 10 10 10
11 11 11 11 11 11 11 11 11 12 12 12 11 11 11 11 11 11 11 10 10 10 10 10 10 10 10 10 10 10 10 10 10 10 10 10 10 10 10 10 10 10
10 10 10 11 11 11 11 11 11 11 12 11 11 11 10 10 10 10 10 10 10 10 10 10 10 10 9 9 9 9 10 9 9 9 9 9 9 9 9 9 9 9
10 10 10 11 11 11 11 11 11 11 11 11 11 11 10 10 10 10 10 10 10 10 10 10 10 10 9 9 9 9 9 9 9 9 9 9 9 9 9 9 9 9
10 10 10 11 11 11 11 11 11 11 11 11 11 11 11 11 11 10 10 10 10 10 10 10 10 10 10 9 9 9 9 9 9 9 9 9 9 9 9 9 9 9
10 10 11 11 11 11 11 11 11 11 11 11 11 11 11 11 11 10 10 10 10 10 10 10 10 10 10 9 9 9 9 9 9 9 9 9 9 9 9 9 9 9
9 10 10 10 10 11 11 11 11 11 11 11 11 11 10 10 10 10 10 10 10 10 9 9 9 9 9 9 9 9 9 9 9 9 9 9 9 9 9 9 9 9
9 9 10 10 10 10 10 10 10 10 10 10 10 10 10 10 10 10 10 10 9 9 9 9 9 9 9 9 9 9 9 9 9 9 9 9 9 9 9 9 9 9
9 10 10 10 10 10 10 10 10 10 10 10 10 10 10 10 10 10 9 9 9 9 9 9 9 9 9 8 8 8 9 9 9 9 9 9 9 9 9 9 9 9
10 10 10 10 10 10 10 10 9 10 10 10 10 10 10 10 10 10 9 9 9 9 9 9 9 9 8 8 8 8 8 8 8 8 8 8 9 9 9 9 9 8
10 10 10 10 10 10 9 9 10 10 10 9 9 9 9 9 9 9 9 9 9 9 9 9 9 9 8 8 8 8 8 8 8 8 8 8 8 8 8 8 8 8
10 10 10 10 9 9 9 9 10 9 9 9 9 9 9 9 9 9 9 9 9 9 9 9 9 9 8 8 8 8 8 8 8 8 8 8 8 8 8 8 8 8
9 9 9 9 9 9 9 9 9 9 9 9 9 9 9 9 9 9 9 9 9 9 9 9 9 8 8 8 8 8 8 8 8 8 8 8 8 8 9 9 9 8
9 9 9 9 9 9 9 9 9 9 9 9 9 9 9 9 9 9 9 9 9 9 9 8 8 8 8 8 8 8 8 8 8 8 8 8 8 8 8 8 8 8
9 9 9 9 9 9 9 9 9 9 9 9 9 9 9 9 9 9 9 9 8 8 8 8 8 8 8 8 8 7 7 7 7 7 8 8 8 8 8 8 8 7
8 8 8 8 9 9 9 9 9 9 9 9 9 9 8 8 8 8 8 8 8 9 9 9 9 8 8 8 8 7 7 7 7 7 7 7 7 7 7 7 7 7
8 8 8 8 8 8 8 8 8 8 8 8 8 8 8 8 8 8 8 8 8 9 9 9 9 9 9 9 8 8 7 7 7 7 7 7 7 7 7 7 6 6
8 8 8 8 8 8 8 8 8 8 8 8 8 8 8 8 8 8 8 8 8 8 8 8 9 9 9 9 8 8 7 7 7 7 7 6 6 6 6 6 6 5
Height
1533 1534 1536 1537 1538 1539 1539 1540 1541 1541 1541 1541 1541 1542 1542 1542 1543 1544 1545 1545 1546 1547 1547 1548 1548 1548 1547 1547 1547 1547 1546 1547 1546 1546 1545 1545 1544 1544 1545 1545 1546 1546
1532 1534 1535 1536 1537 1538 1539 1540 1541 1542 1542 1542 1542 1543 1543 1544 1544 1545 1546 1546 1548 1549 1549 1549 1549 1549 1549 1548 1548 1548 1547 1547 1547 1547 1546 1546 1545 1545 1546 1546 1546 1547
1532 1534 1535 1536 1537 1538 1539 1540 1541 1543 1543 1543 1544 1544 1545 1545 1546 1546 1547 1547 1548 1549 1550 1550 1551 1550 1550 1550 1549 1549 1549 1549 1548 1548 1548 1547 1547 1547 1547 1547 1548 1548
1531 1533 1534 1536 1537 1538 1539 1540 1542 1543 1544 1545 1545 1545 1546 1546 1547 1547 1548 1548 1549 1550 1551 1551 1551 1551 1551 1551 1550 1550 1550 1550 1550 1549 1549 1548 1548 1548 1548 1548 1549 1549
1529 1531 1533 1534 1536 1536 1538 1540 1541 1543 1545 1545 1545 1546 1546 1547 1548 1548 1549 1549 1550 1551 1551 1552 1552 1552 1552 1552 1551 1551 1551 1551 1551 1550 1550 1550 1549 1549 1549 1549 1550 1550
1528 1529 1531 1533 1534 1535 1537 1539 1540 1542 1543 1545 1546 1546 1547 1547 1548 1549 1549 1550 1551 1551 1552 1552 1553 1553 1553 1553 1552 1552 1552 1552 1552 1551 1551 1551 1551 1550 1550 1550 1551 1551
1525 1527 1528 1531 1532 1534 1536 1538 1540 1541 1542 1544 1545 1546 1547 1547 1548 1548 1549 1550 1550 1551 1552 1552 1553 1553 1553 1553 1553 1552 1552 1552 1552 1552 1552 1552 1552 1551 1551 1551 1552 1552
1524 1526 1527 1529 1531 1533 1535 1537 1539 1540 1540 1542 1544 1545 1546 1546 1547 1548 1548 1549 1549 1550 1551 1552 1553 1553 1553 1553 1553 1553 1553 1552 1552 1552 1552 1552 1552 1552 1552 1552 1552 1552
1523 1525 1526 1528 1530 1532 1533 1535 1537 1538 1539 1541 1543 1543 1544 1545 1546 1547 1548 1549 1549 1550 1550 1551 1552 1552 1552 1553 1552 1552 1552 1552 1552 1552 1552 1552 1552 1552 1552 1552 1552 1552
1522 1523 1524 1526 1529 1531 1532 1534 1535 1537 1538 1540 1541 1542 1543 1544 1546 1547 1548 1549 1549 1549 1550 1550 1550 1551 1551 1551 1551 1552 1552 1551 1551 1551 1551 1552 1552 1552 1552 1552 1553 1552
1520 1521 1523 1525 1527 1529 1531 1532 1534 1535 1537 1538 1539 1540 1542 1544 1545 1546 1547 1548 1549 1549 1549 1549 1549 1549 1549 1549 1550 1551 1551 1551 1551 1551 1551 1551 1551 1552 1552 1552 1553 1553
1519 1520 1522 1524 1526 1528 1530 1531 1533 1534 1536 1537 1537 1539 1541 1543 1543 1544 1545 1546 1547 1547 1548 1548 1548 1548 1549 1549 1549 1550 1550 1550 1550 1550 1550 1550 1550 1551 1551 1551 1552 1552
1518 1520 1521 1524 1526 1527 1529 1531 1532 1533 1534 1535 1535 1536 1538 1540 1541 1541 1542 1544 1545 1545 1546 1546 1546 1547 1547 1548 1548 1548 1548 1549 1549 1549 1549 1549 1549 1549 1550 1550 1551 1551
1518 1520 1521 1523 1525 1526 1528 1529 1530 1531 1532 1533 1534 1534 1536 1537 1538 1539 1540 1542 1542 1543 1544 1545 1545 1545 1546 1546 1546 1546 1546 1546 1547 1547 1547 1547 1547 1548 1548 1549 1549 1549
1517 1519 1520 1522 1523 1525 1526 1528 1529 1529 1530 1532 1532 1533 1534 1535 1536 1537 1538 1540 1540 1541 1542 1543 1543 1543 1544 1544 1544 1543 1544 1544 1544 1545 1545 1545 1545 1545 1546 1546 1547 1547
1516 1518 1519 1520 1521 1523 1525 1526 1527 1528 1529 1530 1530 1531 1532 1533 1534 1534 1535 1536 1537 1539 1540 1540 1540 1541 1541 1541 1541 1541 1542 1542 1542 1542 1542 1542 1543 1543 1543 1544 1545 1545
1516 1516 1517 1518 1519 1521 1522 1523 1525 1526 1527 1527 1528 1529 1529 1530 1531 1532 1532 1533 1535 1536 1537 1538 1538 1538 1538 1539 1539 1539 1539 1539 1540 1540 1540 1540 1540 1541 1541 1541 1542 1543
1515 1516 1516 1517 1517 1519 1520 1521 1522 1523 1524 1525 1526 1526 1527 1528 1529 1530 1530 1532 1533 1534 1535 1536 1536 1537 1537 1538 1538 1538 1538 1538 1538 1538 1538 1538 1538 1538 1539 1539 1539 1539
1514 1515 1516 1516 1517 1517 1518 1519 1520 1521 1522 1523 1524 1525 1526 1527 1528 1529 1530 1531 1532 1533 1534 1534 1535 1535 1536 1536 1536 1536 1536 1536 1536 1536 1536 1536 1536 1536 1536 1536 1537 1537
1514 1514 1515 1516 1516 1517 1517 1518 1519 1520 1520 1521 1522 1523 1524 1526 1527 1528 1529 1530 1531 1532 1532 1533 1533 1533 1534 1534 1534 1534 1534 1534 1534 1534 1534 1534 1534 1534 1534 1534 1534 1534
1515 1515 1515 1516 1516 1517 1517 1517 1518 1518 1519 1520 1522 1523 1524 1525 1525 1526 1527 1528 1529 1529 1530 1530 1531 1531 1531 1531 1532 1532 1532 1532 1532 1532 1532 1531 1531 1531 1531 1531 1532 1532
1515 1515 1515 1515 1516 1516 1517 1517 1517 1518 1519 1520 1521 1522 1523 1524 1525 1525 1526 1527 1527 1528 1528 1529 1529 1529 1530 1530 1530 1530 1530 1530 1530 1530 1530 1529 1529 1529 1529 1529 1529 1530
1515 1515 1515 1515 1516 1516 1517 1518 1518 1519 1519 1520 1521 1521 1522 1523 1524 1525 1525 1526 1527 1527 1528 1528 1528 1528 1529 1529 1529 1529 1529 1529 1529 1528 1528 1528 1528 1528 1528 1528 1528 1528
1515 1515 1515 1516 1516 1517 1518 1518 1519 1519 1520 1520 1520 1521 1521 1522 1523 1524 1525 1525 1526 1526 1526 1526 1527 1527 1527 1527 1527 1527 1527 1528 1528 1527 1527 1527 1527 1527 1527 1527 1527 1527
1515 1515 1515 1516 1516 1517 1518 1518 1519 1519 1519 1520 1520 1520 1521 1521 1522 1523 1523 1524 1524 1524 1525 1525 1525 1525 1525 1526 1526 1526 1526 1526 1526 1526 1526 1526 1526 1526 1526 1526 1526 1526
1514 1514 1514 1515 1515 1516 1517 1518 1518 1518 1518 1519 1519 1519 1520 1520 1521 1521 1522 1522 1523 1523 1523 1523 1523 1523 1523 1524 1524 1524 1524 1524 1525 1525 1525 1525 1525 1525 1525 1526 1526 1526
Wind_Speed
9 8 8 6 6 3 2 2 1 2 2 3 3 2 3 4 4 4 4 4 3 2 4 4 5 5 6 7 8 8 8 8 8 9 9 9 9 9 10 10 10 9
12 10 9 8 8 6 5 4 3 2 2 2 2 2 2 3 4 5 5 5 3 2 2 3 4 6 7 9 10 10 11 10 10 11 11 10 11 11 11 11 11 10
13 12 10 10 9 8 6 5 6 4 2 1 2 1 2 2 3 4 5 5 4 3 2 3 3 5 6 8 10 11 12 12 12 13 13 13 13 12 13 12 12 12
14 13 12 11 11 9 8 8 8 6 5 4 3 3 2 2 2 3 3 3 4 3 3 2 2 3 4 5 7 9 10 11 11 12 12 12 13 12 13 13 12 11
16 15 14 14 14 13 12 12 10 9 8 7 6 5 4 3 3 2 2 2 2 3 2 2 2 2 2 3 4 5 6 7 9 10 9 10 10 10 10 10 10 9
19 18 17 17 17 15 15 14 13 12 12 9 8 7 5 5 4 3 3 2 2 2 2 1 1 1 1 1 2 2 2 3 4 6 6 6 7 7 7 7 7 7
22 21 20 19 18 16 16 15 13 14 14 11 10 9 7 6 5 4 4 3 3 2 2 2 2 2 2 2 1 1 0 0 0 1 2 3 3 3 4 4 4 4
24 22 22 21 19 17 17 17 15 16 16 13 12 11 9 8 7 6 5 5 4 3 3 3 4 4 3 3 2 2 1 1 2 3 2 2 2 1 1 2 2 2
24 24 24 24 21 19 19 19 18 18 17 15 14 14 12 10 9 8 7 6 5 5 4 3 4 6 6 5 3 2 1 1 2 2 3 3 3 3 3 2 2 2
24 24 24 26 25 21 21 21 20 19 18 17 16 16 15 12 11 10 9 9 8 7 6 6 6 7 7 7 5 3 2 2 2 2 2 3 3 4 4 4 4 3
23 24 24 27 27 23 22 21 20 20 19 18 18 18 16 14 14 13 13 12 12 11 11 10 10 9 10 12 10 6 5 4 4 3 3 3 3 4 4 4 5 4
21 22 23 26 26 24 23 21 20 21 20 19 19 19 17 15 15 15 16 16 15 14 15 15 15 14 15 17 16 12 9 8 8 7 7 7 7 6 6 6 5 5
18 20 23 24 23 22 22 21 20 20 20 21 21 22 21 21 20 18 16 17 17 17 18 19 18 18 18 18 17 16 13 12 12 11 10 11 12 11 11 10 8 8
15 18 22 23 21 19 20 21 20 19 19 21 21 20 21 23 23 21 19 19 19 20 22 21 19 19 18 16 15 16 15 14 14 14 14 14 14 15 15 14 13 11
13 14 17 20 21 19 19 20 21 20 20 20 20 19 20 21 22 22 23 24 22 21 21 21 20 20 18 15 14 15 16 17 18 18 17 17 17 17 17 16 16 15
11 12 15 18 20 20 19 19 19 20 19 19 19 20 19 19 19 20 22 23 22 22 21 22 21 19 15 14 15 16 18 20 21 19 18 18 18 18 17 16 16 16
9 11 12 14 17 19 20 18 18 18 17 17 18 19 18 17 17 19 20 20 20 20 19 19 16 14 12 12 14 16 17 18 18 18 18 18 17 17 17 17 17 17
8 10 11 12 13 15 17 17 18 17 17 17 17 18 17 16 14 14 13 13 13 13 13 12 10 9 9 10 10 11 12 12 13 14 15 15 15 15 15 17 18 19
8 10 11 12 12 14 15 16 16 17 16 16 15 14 13 12 10 9 8 9 9 8 7 7 7 7 8 7 7 7 8 8 9 10 11 12 12 12 13 14 15 16
7 8 9 11 12 13 12 12 13 12 12 11 11 10 9 8 7 7 7 7 7 6 6 6 7 8 8 8 9 9 9 9 9 10 11 11 12 12 13 13 13 14
6 7 8 9 10 11 10 9 9 9 9 8 8 7 6 6 6 6 7 7 8 9 9 10 10 11 10 10 10 10 10 10 10 11 11 12 12 13 13 14 14 14
5 6 7 7 7 7 7 7 7 8 8 8 7 7 7 7 8 8 9 11 11 12 12 12 12 11 11 10 10 9 9 10 10 11 11 11 11 11 11 12 13 14
7 7 7 8 7 7 7 7 7 7 7 7 8 8 8 9 9 10 10 10 11 11 12 12 11 11 11 10 10 9 9 9 10 11 12 12 11 10 10 10 11 12
9 9 8 7 7 7 8 9 9 8 9 8 8 8 7 7 7 6 6 7 7 9 10 11 11 11 11 11 11 10 9 10 11 12 13 13 13 12 9 8 8 8
8 9 10 9 9 8 9 10 10 10 9 9 8 8 7 6 5 5 6 6 7 9 10 11 13 13 14 14 13 12 11 11 11 12 13 13 13 12 11 9 7 6
9 9 10 10 10 9 9 10 10 10 10 10 10 9 9 7 6 7 8 8 9 10 10 11 13 14 15 15 15 14 13 12 11 12 12 12 12 11 10 9 8 6
Wind_Direction
234 241 254 236 205 187 130 121 108 91 85 82 87 89 102 116 123 122 116 108 96 76 74 73 73 76 77 82 83 84 87 87 90 92 92 94 94 92 91 89 85 82
234 239 241 224 200 174 148 151 155 131 95 99 117 117 120 133 142 144 142 136 136 128 99 89 88 87 85 87 86 85 86 87 87 88 88 89 89 88 89 87 85 82
233 240 237 219 194 172 168 175 163 154 182 200 167 155 151 155 160 164 162 158 159 165 153 130 113 105 98 94 94 93 93 91 89 89 90 90 90 89 89 87 84 84
231 238 230 208 188 178 183 186 177 177 205 221 207 194 191 180 185 190 179 174 176 182 189 175 141 123 109 101 100 100 101 101 98 96 96 96 97 96 94 91 89 87
229 231 221 205 197 195 195 203 217 216 209 220 218 205 203 192 191 195 186 182 180 183 194 192 168 136 118 105 100 98 101 106 105 105 103 100 101 101 98 96 92 87
224 223 212 207 207 208 210 216 223 211 204 218 220 210 213 205 197 200 199 200 195 194 204 197 194 176 150 124 112 104 98 105 109 111 112 108 106 106 103 101 94 87
222 218 208 209 212 211 215 215 211 207 207 217 219 212 210 204 202 206 206 215 217 224 245 243 247 241 226 229 209 198 240 289 317 100 113 106 106 111 110 104 95 91
226 218 211 215 215 212 213 209 208 212 211 213 219 216 209 204 206 207 209 219 220 229 255 272 281 279 267 259 251 254 271 294 310 312 322 349 6 17 70 84 71 60
232 225 221 222 219 218 217 212 212 215 213 214 220 221 218 216 218 218 220 225 224 225 239 264 286 290 289 281 266 267 293 329 332 326 324 326 329 327 325 331 349 355
233 233 230 223 220 223 222 218 220 222 219 219 221 223 225 228 232 234 240 244 242 240 244 253 265 275 279 276 273 284 300 316 334 332 331 328 324 322 316 313 315 316
234 239 233 222 221 224 223 222 225 226 222 221 225 229 235 245 248 247 251 252 250 256 265 267 263 262 265 268 274 280 279 283 290 294 303 309 310 313 312 315 319 317
236 237 227 220 221 224 223 224 228 229 223 221 229 236 240 249 253 250 249 249 251 260 270 273 268 266 269 271 273 272 269 273 276 277 283 285 285 288 288 291 298 302
235 231 222 219 221 223 223 225 231 234 229 228 237 244 242 241 244 248 250 251 253 255 260 266 267 267 272 273 271 269 270 272 272 271 273 275 276 277 276 276 277 278
234 230 225 225 228 227 224 226 233 240 239 236 240 247 245 240 241 247 254 258 259 258 258 260 262 267 270 270 269 270 273 276 276 274 271 269 269 270 270 271 271 271
233 230 230 232 235 232 228 231 236 241 243 241 243 248 249 247 249 254 257 258 260 261 258 256 260 267 269 271 273 272 271 274 276 274 270 266 264 265 268 268 267 268
230 230 231 234 234 233 233 236 239 240 243 244 247 253 255 255 258 261 259 258 259 260 257 257 263 268 268 273 275 269 267 270 271 270 266 262 259 258 258 258 258 260
229 231 232 233 233 234 237 240 241 241 244 247 250 256 259 258 260 260 258 256 256 255 253 256 260 262 263 265 264 263 265 266 266 265 263 261 260 258 256 254 252 251
228 227 227 227 229 232 234 237 239 241 245 249 251 253 253 250 250 250 246 241 241 243 245 248 247 244 245 249 253 260 264 264 265 266 265 265 266 264 263 261 257 253
226 225 221 220 223 227 229 230 234 236 237 237 237 236 237 236 235 233 226 221 223 227 233 238 236 236 242 253 265 273 274 275 276 273 272 274 273 271 270 267 266 263
211 214 210 208 207 208 212 214 214 215 215 214 217 220 225 227 227 227 225 221 225 236 246 253 253 254 261 271 279 286 291 293 290 286 283 282 278 278 277 274 273 273
222 219 211 205 202 200 200 199 198 199 200 201 203 207 216 227 234 241 247 253 261 268 271 272 271 269 269 271 276 287 297 300 299 296 293 290 285 282 279 276 273 269
245 240 231 222 220 220 217 211 204 200 197 198 202 212 226 238 246 253 260 264 266 268 267 267 268 269 268 268 273 286 298 306 310 309 307 305 302 296 289 282 275 268
239 245 246 242 239 234 226 218 210 206 212 222 231 236 238 239 242 245 249 253 254 257 259 259 261 262 263 266 272 282 295 304 311 314 315 315 314 309 300 287 276 268
227 230 233 236 237 232 224 222 221 226 237 242 237 232 227 226 229 229 232 241 249 255 260 262 263 265 265 267 270 275 283 293 302 308 311 313 316 316 307 291 276 269
224 229 230 231 235 237 234 233 234 237 241 236 227 226 229 231 232 231 236 248 256 260 264 264 264 265 266 268 269 270 274 281 290 299 304 308 314 318 318 311 303 298
226 230 233 233 237 239 233 231 235 238 239 236 233 239 247 251 250 247 249 256 262 268 273 273 271 269 268 268 267 266 267 272 280 289 296 302 310 316 320 320 316 310